Location: USNO
(38.9242°N, 77.0663°W)
Time: 01:36:37
(UTC-05:00)

OTV 5 (USA 277) - Pass Details

Date: 08 October 2017
Orbit: 404 x 417 km, 43.0° (Epoch: 07 September)

Event Time Altitude Azimuth Distance (km) Brightness Sun altitude
Rises 19:47:21 0° 219° (SW) 2,342 ? -14.0°
Reaches altitude 10° 19:49:38 10° 206° (SSW) 1,482 ? -14.4°
Maximum altitude 19:52:31 27° 147° (SSE) 840 ? -15.0°
Enters shadow 19:52:56 26° 134° (SE) 858 ? -15.1°
